Location: Forest
(37.3641°N, 79.2902°W)
Time: 12:05:17
(UTC+00:00)

Hubble Space Telescope - Visible Passes

Search period start: 10 October 2024 00:00
Search period end: 20 October 2024 00:00
Orbit: 503 x 507 km, 28.5° (Epoch: 09 October)

Date Brightness Start Highest point End Pass type
(mag) Time Alt. Az. Time Alt. Az. Time Alt. Az.
17 Oct 2.9 00:32:28 10° SSW 00:33:52 15° SSW 00:33:52 15° SSW visible
18 Oct 2.5 00:10:46 10° SW 00:13:32 18° S 00:13:33 18° S visible
18 Oct 2.5 23:49:03 10° SW 23:51:54 19° S 23:53:11 17° SE visible
19 Oct 2.5 23:27:20 10° SW 23:30:14 20° S 23:32:46 12° SE visible
